Atlanta Dekalb, GA

7:46 PM EDT on March 26, 2017 (GMT -0400)
Dekalb-Peachtree

Weather History for KPDK - December, 2013

Change the Weather History Date:

Friday, December 13, 2013

  Actual Average Record
Temperature  
Mean Temperature 40 °F 45 °F  
Max Temperature 55 °F 54 °F 72 °F (2015)
Min Temperature 24 °F 35 °F 18 °F (2010)
Degree Days  
Heating Degree Days 25 20  
Month to date heating degree days 176 243  
Since 1 July heating degree days 771 770  
Moisture  
Dew Point 18 °F    
Average Humidity 49    
Maximum Humidity 81    
Minimum Humidity 16    
Precipitation  
Precipitation 0.00 in 0.15 in 0.75 in (2002)
Month to date precipitation 2.74 2.08  
Year to date precipitation 50.89  
Snow  
Snow 0.00 in - - ()
Month to date snowfall 0.0  
Since 1 July snowfall 0.0  
Snow Depth 0.00 in    
Sea Level Pressure  
Sea Level Pressure 30.32 in    
Wind  
Wind Speed 1 mph (SE)    
Max Wind Speed 9 mph    
Max Gust Speed 17 mph    
Visibility 10 miles    
Events      
T = Trace of Precipitation, MM = Missing Value Source: NWS Daily Summary

Daily Weather History Graph

Daily Weather History Graph

Search for Another Location

Airport or City:

Trip Planner

Search our weather history database for the weather conditions in past years. The results will help you decide how hot, cold, wet, or windy it might be!

Date:

Astronomy

Dec. 13, 2013 Rise Set
Actual Time 7:33 AM EST 5:29 PM EST
Civil Twilight 7:06 AM EST 5:57 PM EST
Nautical Twilight 6:34 AM EST 6:28 PM EST
Astronomical Twilight 6:04 AM EST 6:58 PM EST
Moon 3:05 PM EST (12/13) 4:02 AM EST (12/13)
Length of Visible Light 10h 50m
Length of Day
9h 55m
Waxing Gibbous, 88% of the Moon is Illuminated
Dec 13
Waxing Gibbous
Dec 17
Full
Dec 25
Last Quarter
Jan 1
New
Jan 7
First Quarter

Hourly Weather History & Observations

Time (EST) Temp. Windchill Dew Point Humidity Pressure Visibility Wind Dir Wind Speed Gust Speed Precip Events Conditions
12:53 AM 30.0 °F - 16.0 °F 56% 30.41 in 10.0 mi Calm Calm - N/A   Clear
1:53 AM 28.9 °F - 16.0 °F 58% 30.39 in 10.0 mi Calm Calm - N/A   Clear
2:53 AM 27.0 °F - 18.0 °F 69% 30.39 in 10.0 mi Calm Calm - N/A   Clear
3:53 AM 27.0 °F - 16.0 °F 63% 30.40 in 10.0 mi Calm Calm - N/A   Clear
4:53 AM 25.0 °F - 19.0 °F 78% 30.38 in 10.0 mi Calm Calm - N/A   Clear
5:53 AM 24.1 °F - 19.9 °F 84% 30.37 in 10.0 mi Calm Calm - N/A   Clear
6:53 AM 27.0 °F - 18.0 °F 69% 30.38 in 10.0 mi Calm Calm - N/A   Clear
7:53 AM 25.0 °F - 19.0 °F 78% 30.38 in 9.0 mi Calm Calm - N/A   Clear
8:53 AM 30.9 °F - 21.0 °F 67% 30.39 in 9.0 mi Calm Calm - N/A   Clear
9:53 AM 37.9 °F - 19.0 °F 47% 30.39 in 9.0 mi Calm Calm - N/A   Clear
10:53 AM 43.0 °F - 18.0 °F 37% 30.38 in 10.0 mi Calm Calm - N/A   Clear
11:53 AM 46.9 °F - 18.0 °F 32% 30.36 in 10.0 mi Calm Calm - N/A   Clear
12:53 PM 51.1 °F - 15.1 °F 24% 30.31 in 10.0 mi Calm Calm - N/A   Clear
1:53 PM 54.0 °F - 10.9 °F 18% 30.28 in 10.0 mi Calm Calm - N/A   Clear
2:53 PM 55.0 °F - 10.9 °F 17% 30.25 in 10.0 mi Variable 4.6 mph - N/A   Clear
3:53 PM 53.1 °F - 15.1 °F 22% 30.25 in 10.0 mi SSE 4.6 mph - N/A   Clear
4:53 PM 52.0 °F - 15.1 °F 23% 30.24 in 10.0 mi SE 3.5 mph - N/A   Clear
5:53 PM 48.9 °F - 17.1 °F 28% 30.24 in 10.0 mi Variable 3.5 mph - N/A   Clear
6:53 PM 48.9 °F - 19.9 °F 32% 30.25 in 10.0 mi ESE 3.5 mph - N/A   Clear
7:53 PM 46.9 °F - 21.0 °F 36% 30.29 in 10.0 mi Calm Calm - N/A   Clear
8:53 PM 48.0 °F - 21.9 °F 36% 30.25 in 10.0 mi ESE 4.6 mph - N/A   Clear
9:53 PM 48.0 °F - 24.1 °F 39% 30.22 in 10.0 mi ESE 5.8 mph - N/A   Clear
10:53 PM 46.9 °F - 26.1 °F 44% 30.22 in 10.0 mi Calm Calm - N/A   Clear
11:53 PM 46.0 °F 44.8 °F 26.1 °F 46% 30.19 in 10.0 mi East 3.5 mph - N/A   Clear